Home > Weather > Accra > Past weeks

Flag for Ghana Weather for the Past 2 Weeks in Accra, Ghana

Now
88 °F

Scattered clouds.


Feels Like: 100 °F
Forecast: N/A
Wind: 15 mph from South

Location: Accra Airport

Current Time: Feb 14, 2016 at 3:28:20 PM

Latest Report: Feb 14, 2016 at 1:46 PM


Visibility: 2 mi

Pressure: 29.80 "Hg

Humidity: 70%

Dew point: 77 °F

Location of AccraLocation

Historic Weather in Accra — Graph

°F

Accra Temperature Yesterday

Maximum temperature yesterday: 90 °F (at 12:00 PM)
Minimum temperature yesterday: 79 °F (at 5:00 AM)
Average temperature yesterday: 83 °F

High & Low Weather Summary for the Past Weeks

 TemperatureHumidityPressure
High93 °F (Feb 5, 12:00 PM)94% (Feb 8, 1:00 AM)30.09 "Hg (Feb 8, 1:00 AM)
Low75 °F (Feb 10, 2:00 PM)30% (Feb 10, 3:00 PM)29.77 "Hg (Feb 10, 3:00 PM)
Average83 °F77%29.88 "Hg
* Reported Feb 5 12:00 Noon — Feb 14 1:46 PM, Accra, Weather by CustomWeather, © 2016

Note: Actual official high and low records may vary slightly from our data, if they occured in-between our weather recording intervals... More about our weather records

Advertising

Accra Weather History for the Previous 24 Hours

 ConditionsComfort  
Time TempWeatherWind HumidityBarometerVisibility
1:46 PM
Sun, Feb 14
88 °FScattered clouds.15 mph70%29.80 "Hg2 mi
12:46 PM90 °FScattered clouds.13 mph63%29.92 "Hg2 mi
7:45 AM81 °FHaze.10 mph89%29.92 "Hg1 mi
6:00 AM81 °FClear.6 mph89%29.89 "Hg4 mi
5:00 AM81 °FPassing clouds.6 mph89%29.89 "Hg4 mi
4:00 AM81 °FPassing clouds.7 mph89%29.89 "Hg4 mi
3:00 AM81 °FPassing clouds.7 mph89%29.89 "Hg4 mi
2:00 AM82 °FPassing clouds.8 mph84%29.89 "Hg4 mi
1:00 AM82 °FPassing clouds.7 mph84%29.92 "Hg4 mi
12:00 AM82 °FPassing clouds.10 mph89%29.92 "Hg4 mi
11:00 PM
Sat, Feb 13
82 °FPassing clouds.12 mph84%29.92 "Hg4 mi
10:00 PM82 °FPassing clouds.15 mph89%29.92 "Hg4 mi
9:00 PM82 °FPassing clouds.13 mph89%29.92 "Hg4 mi
8:00 PM82 °FPassing clouds.13 mph89%29.89 "Hg4 mi
7:00 PM82 °FPassing clouds.18 mph84%29.86 "Hg4 mi
6:00 PM82 °FFog.17 mph84%29.83 "Hg2 mi
5:00 PM84 °FHaze.18 mph79%29.80 "Hg2 mi
4:00 PM86 °FHaze.18 mph70%29.80 "Hg2 mi
3:00 PM88 °FHaze.17 mph62%29.80 "Hg2 mi
Weather by CustomWeather, © 2016

See weather overviewHow to use our weather pages